GW5002 Weather Reports


time (UTC)temp
C
wind
direction
speed
KPH
gust
KPH
rain 1hr
cm
rain 24hr
cm
rain mn
cm
humidity
%
barometer
mb
20260503214523 19 230 0.0 0.0 0.00 0.00 0.00 56 1017.3
20260503213016 19 234 0.0 0.0 0.00 0.00 0.00 55 1017.3
20260503211515 19 164 0.0 0.0 0.00 0.00 0.00 54 1017.4
20260503210022 19 146 0.0 0.0 0.00 0.00 0.00 54 1017.5
20260503204525 19 109 0.0 0.0 0.00 0.00 0.00 55 1017.7
20260503203026 18 127 0.0 0.0 0.00 0.00 0.00 55 1017.7
20260503201518 19 180 0.0 0.0 0.00 0.03 0.00 54 1017.8
20260503200020 18 108 0.0 0.0 0.00 0.03 0.00 55 1017.9
20260503194523 18 134 0.0 0.0 0.00 0.03 0.00 54 1018.0
20260503193035 18 166 0.0 0.0 0.00 0.05 0.00 55 1018.3
20260503191526 18 193 0.0 0.0 0.00 0.10 0.00 55 1018.6
20260503190039 18 180 0.0 0.0 0.00 0.15 0.00 55 1019.0
20260503184524 18 140 0.0 0.0 0.00 0.15 0.00 56 1019.2
20260503183027 18 163 0.0 0.0 0.00 0.18 0.00 53 1019.3
20260503181530 18 146 0.0 0.0 0.00 0.23 0.00 55 1019.4
20260503180029 18 146 0.0 0.0 0.00 0.25 0.00 54 1019.4
20260503174527 19 111 0.0 0.0 0.00 0.25 0.00 48 1019.5
20260503173024 19 191 0.0 0.0 0.00 0.28 0.00 46 1019.5
20260503171526 20 72 0.0 0.0 0.00 0.33 0.00 44 1019.7
20260503081540 -17 0.0 0.0 0.00 0.97 0.00 1016.7
20260503071535 11 337 0.0 0.0 0.00 0.97 0.00 94 1016.3
20260503054533 11 42 0.0 0.0 0.00 1.07 0.00 94 1016.1
20260503053021 12 5 0.0 0.0 0.00 1.07 0.00 94 1016.0
20260503051527 12 27 0.0 0.0 0.00 1.09 0.00 94 1016.0
20260503050007 12 28 0.0 0.0 0.00 1.09 0.00 93 1015.8
20260503044514 12 55 0.0 0.0 0.00 1.09 0.00 93 1015.6
20260503043018 12 62 0.0 0.0 0.00 1.09 0.00 93 1015.3
20260503041524 12 30 0.0 0.0 0.00 1.09 0.00 93 1015.2
20260503040008 12 76 0.0 0.0 0.00 1.09 0.00 93 1015.0
20260503034514 12 321 0.0 0.0 0.00 1.09 1.09 92 1014.7
20260503033025 12 352 0.0 0.0 0.00 1.09 1.09 92 1014.6
20260503031520 12 352 0.0 0.0 0.00 1.09 1.09 92 1014.4
20260503030030 13 345 0.0 0.0 0.00 1.09 1.09 92 1014.2
20260503024509 13 352 0.0 0.0 0.00 1.09 1.09 92 1014.1
20260503023016 13 248 0.0 0.0 0.00 1.09 1.09 92 1014.0
20260503021520 13 36 0.0 0.0 0.00 1.09 1.09 92 1013.6
20260503020027 13 65 0.0 0.0 0.00 1.12 1.09 92 1013.5
20260503014527 13 360 0.0 0.0 0.00 1.12 1.09 92 1013.2
20260503013012 13 150 0.0 0.0 0.00 1.12 1.09 91 1012.9
20260503011520 13 49 0.0 0.0 0.00 1.12 1.09 92 1013.2
20260503010025 13 13 0.0 0.0 0.00 1.12 1.09 92 1013.2
20260503004551 13 319 0.0 0.0 0.00 1.12 1.09 93 1012.9
20260503003040 13 32 0.0 0.0 0.00 1.12 1.09 93 1012.6
20260503001522 13 28 0.0 0.0 0.00 1.14 1.09 93 1012.2
20260503000022 13 9 0.0 0.0 0.00 1.17 1.09 93 1012.3
20260502234527 13 360 0.0 0.0 0.00 1.19 1.09 93 1012.1
20260502233028 13 34 0.0 0.0 0.00 1.22 1.09 94 1011.8
20260502231526 13 54 0.0 0.0 0.00 1.24 1.09 94 1011.5
20260502230032 13 34 0.0 0.0 0.00 1.24 1.09 94 1011.4
20260502224523 13 352 0.0 0.0 0.00 1.27 1.09 95 1011.5
20260502223031 13 26 0.0 0.0 0.00 1.30 1.09 95 1011.6
20260502221528 13 337 0.0 0.0 0.00 1.30 1.09 95 1011.4
20260502220016 13 323 0.0 0.0 0.00 1.30 1.09 95 1011.2